WXM80 ListenWXM80 Stop

You find our weather info also at:

UK Metoffice

WeatherCloud

Weather Underground

Northeastern Weather Network

AWEKAS

Citizen Weather Observer Program (CWOP)

HAMweather, WeatherForYou, PWS Weather


Weather Underground History page Text

Daily Summary for January 13, 2018 Units:  English    Metric   Both
« Previous Day
Next Day »
Daily Weekly Monthly Yearly Custom
  High: Low: Average:
Temperature: 59.6 °F 20.8 °F 38.5 °F
Dew Point: 59.0 °F 7.6 °F 33.1 °F
Humidity: 98 % 56 % 81 %
Wind Speed: 15.9 mph 2.3 mph 7.1 mph
Wind Gust: 32.2 mph - -
Wind:- - WSW
Pressure: 30.14 in 29.09 in -
Precipitation: 0.14 in    
Historical Graphs
 
 
Tabular Data for January 13, 2018
Time Temperature Dew Point Pressure Wind Wind Speed Wind Gust Humidity Rainfall Rate (Hourly)
00:04 59.6 °F 59.0 °F 29.30 in South 9.5 mph 16.1 mph 98 % 0.01 in
00:10 59.4 °F 58.8 °F 29.30 in South 9.0 mph 16.1 mph 98 % 0.01 in
00:18 59.2 °F 58.6 °F 29.30 in WSW 6.7 mph 19.6 mph 98 % 0.02 in
00:30 58.7 °F 58.1 °F 29.29 in South 8.5 mph 13.8 mph 98 % 0.03 in
00:36 58.4 °F 57.8 °F 29.28 in SSW 8.0 mph 20.0 mph 98 % 0.00 in
00:49 58.2 °F 57.6 °F 29.28 in South 7.2 mph 12.7 mph 98 % 0.03 in
01:00 58.4 °F 57.8 °F 29.29 in South 4.3 mph 11.0 mph 98 % 0.02 in
01:14 58.5 °F 57.9 °F 29.29 in SSE 8.9 mph 16.1 mph 98 % 0.02 in
01:21 58.6 °F 58.0 °F 29.27 in SSW 7.3 mph 12.7 mph 98 % 0.01 in
01:32 58.5 °F 57.9 °F 29.29 in SSW 7.2 mph 13.8 mph 98 % 0.00 in
01:52 57.8 °F 57.2 °F 29.26 in South 6.1 mph 10.4 mph 98 % 0.00 in
02:10 57.5 °F 56.9 °F 29.25 in SSW 6.7 mph 16.1 mph 98 % 0.00 in
02:26 57.5 °F 56.9 °F 29.23 in SW 5.9 mph 10.4 mph 98 % 0.00 in
02:37 57.6 °F 57.0 °F 29.22 in South 6.6 mph 11.5 mph 98 % 0.00 in
02:42 57.6 °F 57.0 °F 29.21 in West 5.6 mph 12.7 mph 98 % 0.00 in
02:48 57.4 °F 56.8 °F 29.21 in South 10.9 mph 19.6 mph 98 % 0.00 in
02:56 57.2 °F 56.6 °F 29.21 in South 7.6 mph 16.1 mph 98 % 0.00 in
03:05 57.1 °F 56.5 °F 29.20 in SSW 6.4 mph 11.5 mph 98 % 0.00 in
03:10 57.1 °F 56.5 °F 29.20 in South 6.0 mph 11.5 mph 98 % 0.00 in
03:19 56.9 °F 56.3 °F 29.19 in SSW 5.0 mph 11.5 mph 98 % 0.00 in
03:24 56.6 °F 56.0 °F 29.20 in South 7.5 mph 13.8 mph 98 % 0.01 in
03:46 55.6 °F 55.0 °F 29.17 in South 8.3 mph 12.7 mph 98 % 0.10 in
03:51 55.5 °F 54.9 °F 29.16 in SSW 7.7 mph 13.8 mph 98 % 0.10 in
03:58 55.5 °F 54.9 °F 29.15 in SSW 8.3 mph 19.0 mph 98 % 0.11 in
04:04 55.8 °F 55.2 °F 29.10 in South 9.1 mph 17.3 mph 98 % 0.12 in
04:10 56.3 °F 55.7 °F 29.09 in SSE 4.0 mph 11.0 mph 98 % 0.12 in
04:18 56.9 °F 56.3 °F 29.09 in South 7.6 mph 18.4 mph 98 % 0.12 in
04:27 56.9 °F 56.3 °F 29.09 in SSE 5.1 mph 11.5 mph 98 % 0.10 in
04:37 57.6 °F 57.0 °F 29.09 in SSW 11.7 mph 20.7 mph 98 % 0.06 in
04:42 57.7 °F 57.1 °F 29.09 in SSE 7.8 mph 18.0 mph 98 % 0.03 in
04:47 57.7 °F 57.1 °F 29.09 in South 10.5 mph 17.3 mph 98 % 0.02 in
04:56 57.3 °F 56.7 °F 29.10 in South 9.8 mph 18.4 mph 98 % 0.01 in
05:07 56.6 °F 56.0 °F 29.11 in SSW 13.9 mph 21.0 mph 98 % 0.00 in
05:22 55.5 °F 54.7 °F 29.13 in SSW 12.9 mph 15.0 mph 97 % 0.00 in
05:31 54.9 °F 54.1 °F 29.13 in South 10.4 mph 20.7 mph 97 % 0.00 in
05:42 54.2 °F 53.4 °F 29.14 in SSW 7.8 mph 20.7 mph 97 % 0.00 in
05:54 53.6 °F 52.8 °F 29.15 in South 7.9 mph 19.6 mph 97 % 0.00 in
05:59 53.5 °F 52.7 °F 29.15 in SSW 9.3 mph 13.8 mph 97 % 0.00 in
06:20 52.7 °F 51.6 °F 29.17 in SSW 7.6 mph 11.5 mph 96 % 0.00 in
06:30 52.5 °F 51.4 °F 29.18 in South 8.5 mph 13.0 mph 96 % 0.00 in
06:36 52.4 °F 51.3 °F 29.17 in South 9.0 mph 16.0 mph 96 % 0.00 in
06:42 52.2 °F 51.1 °F 29.18 in SSW 11.3 mph 19.6 mph 96 % 0.00 in
07:01 51.8 °F 50.7 °F 29.19 in SSW 8.4 mph 12.7 mph 96 % 0.00 in
07:10 52.0 °F 51.2 °F 29.23 in SW 7.5 mph 11.5 mph 97 % 0.00 in
07:15 51.9 °F 51.1 °F 29.26 in WSW 13.8 mph 32.2 mph 97 % 0.00 in
07:23 48.7 °F 46.2 °F 29.29 in WNW 15.9 mph 21.9 mph 91 % 0.00 in
07:31 46.3 °F 43.5 °F 29.30 in South 8.7 mph 16.1 mph 90 % 0.00 in
07:39 44.8 °F 42.0 °F 29.31 in SW 8.4 mph 13.8 mph 90 % 0.00 in
07:48 43.1 °F 40.1 °F 29.34 in West 8.1 mph 13.8 mph 89 % 0.00 in
07:53 42.6 °F 39.9 °F 29.36 in SW 7.8 mph 15.0 mph 90 % 0.00 in
08:00 41.8 °F 39.1 °F 29.36 in WNW 4.9 mph 8.1 mph 90 % 0.00 in
08:07 41.4 °F 39.0 °F 29.38 in WNW 3.8 mph 11.5 mph 91 % 0.00 in
08:16 40.8 °F 38.4 °F 29.39 in NW 6.9 mph 13.8 mph 91 % 0.00 in
08:21 40.6 °F 37.9 °F 29.40 in NW 4.9 mph 10.4 mph 90 % 0.00 in
08:27 40.3 °F 37.6 °F 29.41 in SW 9.1 mph 18.4 mph 90 % 0.00 in
08:33 40.0 °F 37.3 °F 29.42 in WNW 10.6 mph 18.0 mph 90 % 0.00 in
08:38 39.5 °F 36.5 °F 29.42 in West 7.6 mph 13.8 mph 89 % 0.00 in
08:44 38.8 °F 35.6 °F 29.43 in SSW 6.2 mph 16.1 mph 88 % 0.00 in
08:55 37.3 °F 33.8 °F 29.44 in WNW 7.0 mph 12.7 mph 87 % 0.00 in
09:04 36.6 °F 33.1 °F 29.45 in NNW 7.7 mph 12.7 mph 87 % 0.00 in
09:10 35.9 °F 32.1 °F 29.47 in WSW 8.0 mph 16.1 mph 86 % 0.00 in
09:20 35.0 °F 30.9 °F 29.49 in WNW 8.6 mph 15.0 mph 85 % 0.00 in
09:25 34.5 °F 30.2 °F 29.50 in WSW 11.3 mph 17.3 mph 84 % 0.00 in
09:31 34.1 °F 29.8 °F 29.50 in West 3.5 mph 11.5 mph 84 % 0.00 in
09:39 33.8 °F 29.5 °F 29.51 in West 5.9 mph 12.7 mph 84 % 0.00 in
09:57 33.1 °F 28.5 °F 29.54 in SW 4.8 mph 15.0 mph 83 % 0.00 in
10:06 32.9 °F 28.0 °F 29.55 in WNW 7.5 mph 16.0 mph 82 % 0.00 in
10:18 32.8 °F 27.6 °F 29.56 in WSW 9.0 mph 19.6 mph 81 % 0.00 in
10:27 33.0 °F 27.5 °F 29.57 in WNW 6.9 mph 12.0 mph 80 % 0.00 in
10:35 33.3 °F 27.5 °F 29.57 in WSW 8.6 mph 17.3 mph 79 % 0.00 in
10:43 33.4 °F 27.3 °F 29.58 in WSW 7.7 mph 17.3 mph 78 % 0.00 in
10:54 33.3 °F 27.2 °F 29.59 in West 8.6 mph 13.0 mph 78 % 0.00 in
11:01 33.4 °F 27.6 °F 29.59 in NW 8.0 mph 19.0 mph 79 % 0.00 in
11:06 33.5 °F 28.0 °F 29.59 in NW 5.9 mph 11.5 mph 80 % 0.00 in
11:11 33.7 °F 28.5 °F 29.59 in NNW 6.4 mph 13.0 mph 81 % 0.00 in
11:16 33.9 °F 28.7 °F 29.60 in NW 8.1 mph 8.1 mph 81 % 0.00 in
11:22 34.0 °F 28.8 °F 29.60 in NNW 7.5 mph 12.7 mph 81 % 0.00 in
11:31 34.0 °F 28.5 °F 29.61 in NW 7.3 mph 11.5 mph 80 % 0.00 in
11:39 33.9 °F 28.4 °F 29.61 in WNW 5.8 mph 9.2 mph 80 % 0.00 in
11:50 33.9 °F 28.7 °F 29.61 in NW 3.8 mph 7.0 mph 81 % 0.00 in
11:59 34.0 °F 29.1 °F 29.61 in NW 4.7 mph 6.9 mph 82 % 0.00 in
12:05 34.0 °F 29.1 °F 29.62 in NW 2.3 mph 5.8 mph 82 % 0.00 in
12:18 34.2 °F 29.0 °F 29.64 in North 5.4 mph 8.1 mph 81 % 0.00 in
12:23 34.3 °F 28.8 °F 29.64 in NW 4.5 mph 9.2 mph 80 % 0.00 in
12:31 34.5 °F 28.7 °F 29.63 in WNW 5.8 mph 10.4 mph 79 % 0.00 in
12:42 34.8 °F 28.6 °F 29.64 in North 4.9 mph 13.8 mph 78 % 0.00 in
12:47 35.0 °F 28.5 °F 29.65 in NNW 6.2 mph 15.0 mph 77 % 0.00 in
12:53 35.2 °F 29.0 °F 29.65 in NNE 3.4 mph 8.1 mph 78 % 0.00 in
12:58 35.4 °F 28.9 °F 29.66 in North 6.0 mph 9.2 mph 77 % 0.00 in
13:18 35.7 °F 28.2 °F 29.67 in NNW 3.4 mph 6.9 mph 74 % 0.00 in
13:25 35.8 °F 28.3 °F 29.67 in WNW 6.2 mph 13.8 mph 74 % 0.00 in
13:33 36.0 °F 28.2 °F 29.68 in NW 5.7 mph 8.0 mph 73 % 0.00 in
13:39 36.1 °F 27.9 °F 29.68 in NW 5.8 mph 9.2 mph 72 % 0.00 in
13:46 36.2 °F 28.0 °F 29.69 in NW 2.9 mph 10.4 mph 72 % 0.00 in
13:55 36.3 °F 28.1 °F 29.70 in WNW 5.4 mph 10.4 mph 72 % 0.00 in
14:01 36.3 °F 28.1 °F 29.71 in NNW 4.6 mph 6.9 mph 72 % 0.00 in
14:06 36.4 °F 27.9 °F 29.71 in NNW 7.2 mph 10.4 mph 71 % 0.00 in
14:17 36.2 °F 27.4 °F 29.73 in NNW 6.0 mph 8.1 mph 70 % 0.00 in
14:25 36.0 °F 27.2 °F 29.73 in NW 3.9 mph 8.1 mph 70 % 0.00 in
14:31 35.8 °F 27.0 °F 29.74 in NNW 5.0 mph 9.0 mph 70 % 0.00 in
14:43 35.1 °F 26.3 °F 29.75 in NW 4.1 mph 9.2 mph 70 % 0.00 in
14:51 34.7 °F 25.9 °F 29.75 in NNW 6.0 mph 13.0 mph 70 % 0.00 in
15:03 34.3 °F 25.9 °F 29.76 in NNE 5.4 mph 6.0 mph 71 % 0.00 in
15:15 34.1 °F 26.0 °F 29.77 in North 6.0 mph 11.5 mph 72 % 0.00 in
15:20 34.0 °F 25.9 °F 29.77 in WNW 7.4 mph 11.5 mph 72 % 0.00 in
15:27 33.9 °F 25.5 °F 29.78 in NNW 7.5 mph 9.2 mph 71 % 0.00 in
15:32 33.8 °F 25.4 °F 29.78 in NNW 4.2 mph 10.4 mph 71 % 0.00 in
15:39 33.7 °F 26.0 °F 29.79 in NNW 4.6 mph 6.9 mph 73 % 0.00 in
15:47 33.7 °F 25.6 °F 29.80 in NNW 5.3 mph 12.0 mph 72 % 0.00 in
16:23 33.0 °F 25.0 °F 29.83 in North 5.7 mph 18.4 mph 72 % 0.00 in
16:28 32.8 °F 24.4 °F 29.83 in NNW 7.8 mph 13.8 mph 71 % 0.00 in
16:33 32.7 °F 24.3 °F 29.83 in WNW 7.2 mph 12.7 mph 71 % 0.00 in
16:38 32.6 °F 24.2 °F 29.84 in North 4.9 mph 11.5 mph 71 % 0.00 in
16:43 32.5 °F 24.1 °F 29.84 in NNW 5.5 mph 13.8 mph 71 % 0.00 in
16:48 32.3 °F 23.9 °F 29.84 in North 6.2 mph 8.1 mph 71 % 0.00 in
16:53 32.2 °F 23.8 °F 29.85 in NW 4.4 mph 8.1 mph 71 % 0.00 in
17:10 31.7 °F 23.7 °F 29.87 in North 6.6 mph 15.0 mph 72 % 0.00 in
17:18 31.5 °F 23.2 °F 29.87 in North 5.8 mph 11.5 mph 71 % 0.00 in
17:38 31.0 °F 22.7 °F 29.89 in NNW 7.2 mph 13.0 mph 71 % 0.00 in
17:54 30.6 °F 22.6 °F 29.91 in North 7.1 mph 13.8 mph 72 % 0.00 in
18:09 30.2 °F 22.3 °F 29.92 in North 6.2 mph 9.2 mph 72 % 0.00 in
18:14 30.0 °F 22.1 °F 29.92 in NNW 8.3 mph 11.5 mph 72 % 0.00 in
18:24 29.6 °F 20.7 °F 29.93 in NW 5.4 mph 13.8 mph 69 % 0.00 in
18:30 29.4 °F 20.8 °F 29.94 in NNW 10.0 mph 16.1 mph 70 % 0.00 in
18:35 29.3 °F 21.4 °F 29.94 in North 3.0 mph 10.4 mph 72 % 0.00 in
18:44 29.0 °F 20.8 °F 29.94 in North 7.7 mph 11.5 mph 71 % 0.00 in
18:53 28.7 °F 20.5 °F 29.95 in North 7.7 mph 11.5 mph 71 % 0.00 in
18:58 28.5 °F 20.3 °F 29.96 in NNW 7.5 mph 13.8 mph 71 % 0.00 in
19:03 28.4 °F 20.2 °F 29.96 in NW 7.7 mph 15.0 mph 71 % 0.00 in
19:08 28.2 °F 20.0 °F 29.97 in NNW 8.3 mph 10.4 mph 71 % 0.00 in
19:18 28.0 °F 20.1 °F 29.97 in NW 8.7 mph 14.0 mph 72 % 0.00 in
19:23 27.9 °F 20.0 °F 29.97 in NE 8.5 mph 15.0 mph 72 % 0.00 in
19:28 27.8 °F 20.3 °F 29.98 in North 5.9 mph 9.2 mph 73 % 0.00 in
19:34 27.8 °F 20.3 °F 29.98 in NNE 6.6 mph 9.2 mph 73 % 0.00 in
19:42 27.6 °F 19.8 °F 29.99 in NNW 6.8 mph 11.5 mph 72 % 0.00 in
19:49 27.4 °F 19.6 °F 30.00 in North 7.3 mph 12.7 mph 72 % 0.00 in
19:54 27.2 °F 19.0 °F 30.00 in NNW 8.0 mph 12.0 mph 71 % 0.00 in
20:00 27.0 °F 18.8 °F 30.00 in NNE 6.5 mph 11.5 mph 71 % 0.00 in
20:05 26.9 °F 18.7 °F 30.00 in North 10.8 mph 19.6 mph 71 % 0.00 in
20:12 26.6 °F 18.1 °F 30.01 in WNW 5.7 mph 21.9 mph 70 % 0.00 in
20:19 26.4 °F 18.3 °F 30.01 in NNW 7.6 mph 13.8 mph 71 % 0.00 in
20:30 26.1 °F 17.6 °F 30.02 in NNW 7.6 mph 14.0 mph 70 % 0.00 in
20:38 25.8 °F 17.4 °F 30.03 in NNW 11.2 mph 18.0 mph 70 % 0.00 in
20:46 25.6 °F 16.8 °F 30.03 in North 8.0 mph 20.0 mph 69 % 0.00 in
20:54 25.3 °F 16.9 °F 30.04 in NNE 5.9 mph 10.4 mph 70 % 0.00 in
21:04 25.0 °F 15.6 °F 30.05 in NNW 6.8 mph 12.7 mph 67 % 0.00 in
21:23 24.2 °F 14.5 °F 30.06 in North 8.4 mph 12.0 mph 66 % 0.00 in
21:38 23.8 °F 13.7 °F 30.07 in NNW 6.1 mph 11.5 mph 65 % 0.00 in
21:56 23.4 °F 14.0 °F 30.08 in NNW 7.5 mph 10.4 mph 67 % 0.00 in
22:05 23.2 °F 13.2 °F 30.08 in NNW 6.6 mph 13.8 mph 65 % 0.00 in
22:10 23.0 °F 12.3 °F 30.08 in NNW 6.0 mph 17.3 mph 63 % 0.00 in
22:20 22.7 °F 11.3 °F 30.09 in NNW 10.3 mph 17.3 mph 61 % 0.00 in
22:28 22.5 °F 11.1 °F 30.09 in NNW 10.0 mph 12.7 mph 61 % 0.00 in
22:34 22.4 °F 11.3 °F 30.09 in North 6.0 mph 8.1 mph 62 % 0.00 in
22:39 22.3 °F 11.2 °F 30.10 in NW 4.3 mph 12.0 mph 62 % 0.00 in
22:44 22.2 °F 11.5 °F 30.11 in NW 5.0 mph 9.2 mph 63 % 0.00 in
22:55 22.0 °F 11.0 °F 30.12 in North 7.9 mph 11.5 mph 62 % 0.00 in
23:01 21.8 °F 10.8 °F 30.12 in NNW 2.8 mph 6.9 mph 62 % 0.00 in
23:10 21.6 °F 10.6 °F 30.13 in WNW 6.9 mph 10.4 mph 62 % 0.00 in
23:22 21.4 °F 10.7 °F 30.13 in NNW 6.5 mph 11.5 mph 63 % 0.00 in
23:27 21.4 °F 10.4 °F 30.13 in North 6.4 mph 11.5 mph 62 % 0.00 in
23:33 21.2 °F 9.5 °F 30.13 in NNE 7.9 mph 17.0 mph 60 % 0.00 in
23:43 21.0 °F 7.7 °F 30.14 in NNE 9.6 mph 17.3 mph 56 % 0.00 in
23:54 20.8 °F 7.6 °F 30.14 in North 6.6 mph 13.8 mph 56 % 0.00 in
Crab Meadow Weather
Compliments of Weather Underground - 2.25 mb

Script developed by  Jim McMurry - jmcmurry@mwt.net Adapted for the template by  Wim van der Kuil - Leuven-Template.eu

Recycling: A used aluminum can is recycled and back on the grocery shelf as a new can, in as little as 60 days.